User: anonymous   Login
Location: Standeford and Andreas Observatories
(44.1397°N, 93.9969°W)
Time: 09:50:27
(UTC-05:00)
Language:

Cosmos 1500 Rocket - Orbit

View from above orbital plane
View from above orbital plane
View from above satellite
View from above satellite

Ground track
Ground track

The orbit data is extracted from the following two-line orbital elements,

1 14373U 83099B   16178.55317671  .00000089  00000-0  78831-5 0  9994
2 14373  82.5400 216.8800 0019231 323.9854 197.1837 14.83616157768148
Epoch (UTC): 26 June 2016 13:16:34
Eccentricity: 0.0019231
inclination: 82.5400°
perigee height: 604 km
apogee height: 631 km
right ascension of ascending node: 216.8800°
argument of perigee: 323.9854°
revolutions per day: 14.83616157
mean anomaly at epoch: 197.1837°
orbit number at epoch: 76814

The dashed part of the orbit path shows where the satellite is in the earth's shadow,  

DLR